Regional Weather Roundup
Issued by NWS Little Rock, AR

Home | Current Version | Previous Version | Graphics & Text | Print | Product List | Glossary On
Versions: 1 2 3 4 5 6 7 8 9 10 11 12 13 14 15 16 17 18 19 20 21 22 23 24 25 26 27 28 29 30 31 32 33 34 35 36 37 38 39 40 41 42 43 44 45 46 47 48 49 50
000
ASUS44 KLZK 021005
RWRLZK

WEATHER ROUNDUP FOR ARKANSAS
NATIONAL WEATHER SERVICE LITTLE ROCK AR
500 AM CDT TUE JUN 02 2015

NOTE: "FAIR" INDICATES FEW OR NO CLOUDS BELOW 12,000 FEET WITH NO
SIGNIFICANT WEATHER AND/OR OBSTRUCTIONS TO VISIBILITY.

ARZ001-003-010-029-021100-
NORTHWEST ARKANSAS

CITY           SKY/WX    TMP DP  RH WIND       PRES   REMARKS
FAYETTEVILLE   CLOUDY    57  57 100 CALM      30.08S FOG
FORT SMITH     PTCLDY    65  62  90 E5        30.06R
HARRISON       CLOUDY    59  57  93 E6        30.11S
BENTONVILLE    CLEAR     61  55  82 SE6       30.08S
ROGERS         PTCLDY    60  59  96 E8        30.09S
SILOAM SPGS    CLOUDY    59  54  82 E5        30.08F
HIGHFILL       PTCLDY    60  58  92 E3        30.07S
$$

ARZ004-005-016-021100-
NORTH CENTRAL ARKANSAS

CITY           SKY/WX    TMP DP  RH WIND       PRES   REMARKS
BATESVILLE     CLOUDY    61  57  88 CALM      30.10F
FLIPPIN        MOCLDY    61  55  82 E3        30.10R
MTN HOME       CLOUDY    59  57  93 SE3       30.11S
$$

ARZ040-041-021100-
WEST CENTRAL ARKANSAS

CITY           SKY/WX    TMP DP  RH WIND       PRES   REMARKS
MENA           CLOUDY    63  61  94 CALM      30.09S VSB 1/4
MOUNT IDA      PTCLDY    63  61  93 CALM      30.06S FOG
$$

ARZ009-017-025-026-028-021100-
NORTHEAST ARKANSAS

CITY           SKY/WX    TMP DP  RH WIND       PRES   REMARKS
CORNING          N/A     61  61 100 NW5       30.10F
JONESBORO      PTCLDY    59  59 100 N6        30.08F
NEWPORT        CLOUDY    60  60 100 N5        30.10F
WALNUT RIDGE   CLEAR     61  57  88 N6        30.10F
BLYTHEVILLE    CLOUDY    62  62 100 N6        30.08S
$$

ARZ022-023-033-042-044-021100-
CENTRAL ARKANSAS

CITY           SKY/WX    TMP DP  RH WIND       PRES   REMARKS
LITTLE ROCK    MOCLDY    65  60  84 NE6       30.08S
N LITTLE ROCK    N/A     63  63  99 NE5       30.08S
JACKSONVILLE   MOCLDY    63  62  96 NE6       30.07F
SEARCY         MOCLDY    62  60  93 N6        30.10F
HOT SPRINGS    PTCLDY    64  61  90 E5        30.07F
RUSSELLVILLE   CLOUDY    66  61  84 CALM      30.08S
CLINTON        MOCLDY    63  61  94 CALM      30.11F
$$

ARZ036-021100-
EAST ARKANSAS

CITY           SKY/WX    TMP DP  RH WIND       PRES   REMARKS
WEST MEMPHIS   CLOUDY    62  62 100 NW3       30.06S
$$

ARZ050-053-066-070-073-021100-
SOUTHWEST ARKANSAS

CITY           SKY/WX    TMP DP  RH WIND       PRES   REMARKS
ARKADELPHIA    FAIR      66  66 100 CALM      30.07F
CAMDEN         PTCLDY    63  59  88 CALM      30.06F
TEXARKANA      MOCLDY    66  64  93 SE5       30.06S
EL DORADO      CLEAR     62  61  96 CALM      30.06F FOG
DE QUEEN       CLEAR     63  62  97 CALM      30.05S FOG
$$

ARZ056-057-069-021100-
SOUTHEAST ARKANSAS

CITY           SKY/WX    TMP DP  RH WIND       PRES   REMARKS
PINE BLUFF     CLOUDY    65  62  90 NE3       30.07F
STUTTGART      CLEAR     63  59  88 MISG      30.08S
MONTICELLO     CLEAR     62  62 100 CALM      30.06F

$$




USA.gov is the U.S. government's official web portal to all federal, state and local government web resources and services.